{"data":{"norad_id":67727,"intl_designator":"2026-026G","name":"STARLINK-36741","alt_names":[],"object_type":"PAYLOAD","status":"ACTIVE","operator":null,"country":"US","launch_date":"2026-02-11","launch_site_code":"AFWTR","launch_vehicle":null,"mission":null,"orbit_class":"UNKNOWN","rcs_meters":null,"size_class":null,"mass_kg":null,"dimensions":null,"purposes":["comms"],"wikipedia_slug":null,"has_3d_model":false,"image_url":null,"decayed_at":null,"tle_current":{"epoch":"2026-05-25T02:19:17.962752Z","epoch_age_seconds":62832,"freshness":"FRESH","line1":"1 67727U 26026G   26145.09673568  .00013754  00000+0  42743-3 0  9999","line2":"2 67727  97.2833 198.5898 0001362  97.6063 262.5335 15.33454869 15835","mean_motion":15.33454869,"eccentricity":0.0001362,"inclination_deg":97.2833,"raan_deg":198.5898,"arg_perigee_deg":97.6063,"mean_anomaly_deg":262.5335,"bstar":0.00042743,"rev_number":1583,"period_min":93.905600295825,"perigee_km":464.58170619453,"apogee_km":466.44591667556,"semimajor_km":6843.650811435,"source":"CELESTRAK","updated_at":"2026-05-25T13:38:21.686245Z"}}}